Погода Земетчино

Погода Земетчино : погода сейчас, прогноз погоды и архив. Всё, что Вы хотите узнать о погоде Земетчино!

Поиск расширенной информации на нашем сайте:

Другие новости

Новости СМИ2

Главная страница сайта

Новости сайта

02.10.2013

Напоминаем, что на нашем новом сайте вы можете получить высокодетализированные прогнозы погоды по пунктам России, СНГ и мира (включающие важные для авиации метеовеличины, такие как направление и скорость ветра, видимость, явления погоды, количество и форма облачности, нижняя и верхняя граница облачности), а также ознакомиться с разнообразными материалами по авиационной метеорологии и подборкой полезных ссылок на эту тему.

Сайт Метеоцентр.Азия посвящён разработке технологий оптимизации авиаметеорологического обслуживания, включая проектирование и перспективное создание нескольких автоматизированных авиаметеорологических систем:
- система выпуска высокодетальных прогностических карт явлений погоды для нижнего воздушного пространства по России и ближнему зарубежью;
- система верификации прогнозов TAF (выпускаемых синоптиками официальных АМСГ РФ и ближнего зарубежья) и AUTOTAF (выпускаемых сайтом Метеоцентр.Азия) - выявление ошибок, онлайн-сопоставление с фактической погодой METAR, автоматическое внесение коррективов в прогнозы при резком отклонении фактической погоды от прогноза, подсчёт оправдываемости прогнозов по элементам и в целом;
- система обработки, анализа и отображения авиаметеорологической информации для применения провайдерами метеорологической информации.

Рекомендуем: Описание новинки игрового мира здесь.

Погода Земетчино - сегодня

Время (UTC), дата Ветер
(°,м/с) 
Видим.   Явления Облачность Т
(°С)
Тd
(°С)
f(%) Тe
(°С)
Pmin
(гПа)
dP
(гПа)
Po
(мм)
O2
(г/м3)
Тmin Tmax R s Состояние
почвы
09 18.01.17 270 (З) 4000 м  слаб. снег  10/0 средняя 
[As op]
-4.8 -6.1 91 -6  1034.3  0.2  763  314           
12 18.01.17 290 (З) 20000 м  {снег}  10/0 средняя 
[As op]
-5.5 -7.4 86 -8  1034.2  -0.1  763  314           
15 18.01.17 270 (З) 10 км    10/0 средняя 
[As op]
-6 -7.7 88 -7  1034.2  763  315    -4.3  0.2     
18 18.01.17 300 (СЗ) 10 км    9/0 средняя 
[Ac trans]
-6.6 -9.6 79 -9  1034.8  0.3  763  316           
21 18.01.17 240 (ЮЗ) 10 км    ясно 
-12.1 -13.2 91 -12  1034.5  -0.4  763  323           
00 19.01.17 тихо ()   10 км    ясно 
-15.8 -17.6 86 -16  1033.6  -1.2  762  327           
03 19.01.17 250 (З) 10 км    8/0 средняя 
[Ac trans]
-11.4 -12.7 90 -11  1031.6  -1.7  761  321  -16      37  равномерный
сухой снег
100% 
06 19.01.17 250 (З) 20000 м    8/0 средняя 
[Ac trans]
-10.8 -12.1 90 -11  1030.8  -0.8  760  320           
09 19.01.17 270 (З) 20000 м    10/0 средняя 
[As op]
-6.2 -9.1 80 -9  1028.7  -1.5  759  314           
12 19.01.17 260 (З) 20000 м    8/0 средняя 
[Ac As]
-6.3 -9.8 76 -9  1027.6  -1.4  758  314           
15 19.01.17 260 (З) 10 км    8/0 средняя 
[Ac As]
-6.8 -10.3 76 -11  1025.8  -1.9  756  314    -5.9       
18 19.01.17 240 (ЮЗ) 10 км    8/0 средняя 
[Ac trans]
-7.7 -10 84 -11  1023.5  -2.2  755  314           
21 19.01.17 250 (З) 10 км    10/0 средняя 
[Ac As]
-7 -9.1 85 -10  1020.8  -2.7  753  312           
00 20.01.17 250 (З) 4000 м  слаб. снег  10/0 средняя 
[As op]
-6.5 -8 89 -9  1017.7  -3  750  311           
03 20.01.17 260 (З) 10 км  {снег}  10/0 средняя 
[As op]
-5.5 -7.5 86 -9  1014.1  -3.3  748  308  -7.9    0.1  36  равномерный
сухой снег
100% 
06 20.01.17 270 (З) 5{12}  20000 м  {снег}  10/0 средняя 
[As op]
-5.1 -6.9 87 -9  1013.2  -0.9  747  308           
09 20.01.17 280 (З) 5{12}  4000 м  слаб. снег  10/0 средняя 
[As op]
-4.2 -6.2 86 -8  1012.4  -0.6  747  306           
12 20.01.17 280 (З) 20000 м  {снег}  10/0 средняя 
[As op]
-3.4 -5.4 86 -6  1012  -0.4  747  305           
15 20.01.17 270 (З) 10 км    8/0 средняя 
[Ac trans]
-2.9 -5.1 85 -5  1012.3  0.3  747  305    -2.9  0.0     
18 20.01.17 280 (З) 10 км    8/0 средняя 
[Ac As]
-4.7 -6.6 87 -6  1013.2  0.7  747  307           
21 20.01.17 260 (З) 10 км    8/0 средняя 
[Ac As]
-6.8 -8.7 86 -8  1013.7  0.3  748  310           
00 21.01.17 260 (З) 10 км    8/0 средняя 
[Ac As]
-9.1 -11.5 83 -11  1013.7  748  313           
03 21.01.17 260 (З) 10 км    9/0 средняя 
[Ac As]
-8.3 -10.2 86 -10  1012  -1.7  746  311  -9.2      36  равномерный
сухой снег
100% 
06 21.01.17 260 (З) 20000 м    9/6 600 м средняя 
[Sc|Ac trans]
-7.4 -9.5 85 -9  1010.2  -1.8  745  309           
09 21.01.17 260 (З) 20000 м    9/5 600 м средняя 
[Sc|Ac As]
-4.5 -6.7 85 -8  1008.1  -1.8  744  305           
Время (UTC), дата Ветер
(°,м/с) 
Видим.   Явления Облачность Т
(°С)
Тd
(°С)
f(%) Тe
(°С)
Pmin
(гПа)
dP
(гПа)
Po
(мм)
O2
(г/м3)
Тmin Tmax R s Состояние
почвы

Для получения пояснительной информации подведите курсор к названию столбца.

ПОГОДА Земетчино - архив

Всё, что Вы хотите узнать о погоде Земетчино - удобно и подробно!

Выберите нужную дату (начиная с 1 января 2015* года) и нажмите кнопку "Найти".
Будут отображены архивные сводки погоды по пункту Земетчино, начиная с указанной даты.


Отображать данные в формате CSV (для использования в таблицах Excel)


Внимание! Наш архив погоды предназначен исключительно для личного некоммерческого использования в познавательных целях. Если Вам необходимы официальные справки о состоянии погоды (для производственных, юридических, коммерческих и т.п. целей), обращайтесь в органы Росгидромета.

*Примечание: данная дата относится к архиву по метеостанциям СССР (Россия, СНГ, Балтия).
Архив по метеостанциям Зарубежной Европы и Азии (кроме Китая) хранится 10 дней, по другим регионам земного шара (Китай, Африка, Америка, Австралия, Океания) - 1 день.

Земетчино - район местоположения метеостанции


Название, широта, долгота, высота метеостанции:
Земетчино 53.5°ш. 42.6°д. 131 м над ур. моря [Российская Федерация]

Дополнительная информация

В oтличие oт бoльшинства пoгoдных сайтoв мы публикуем пoдрoбную метеoинфoрмацию в детальнoм прoфессиoнальнoм фoрмате.

Характеристики температуры и влажнoсти вoздуха измеряются на высoте 2 м в тени вдали oт зданий и деревьев.
Скoрoсть ветра измеряется на высoте 10 м (на урoвне рoста челoвека скoрoсть ветра ниже в 1.5-2 раза). Если метеoстанция нахoдится в гoрoде или в лесу, тo скoрoсть ветра занижена на 2-4 м/с пo сравнению с oткрытым местoм. Скoрoсть ветра над акватoриями крупных рек и oзёр, а также на вершинах хoлмoв на 2-5 м/с выше, чем в oбычных услoвиях.
Атмoсфернoе давление в разных тoчках местнoсти мoжет значительнo oтличаться oт давления на метеoстанции, в зависимoсти oт услoвий рельефа (при пoдъёме на 10 м давление пoнижается примернo на 1 мм рт.ст.).